This demonstration page uses our WeatherBlox Daily Observations layout. Learn more.

Left ArrowRight Arrow

41.86663, -103.66717

Hourly Observations for October 15, 2021

Temp ( °F °C ) Dew Point ( °F °C ) Humidity (%) Winds ( mph kmh ) Pressure ( in mb ) Visibility ( mi km ) Precip ( " mm )
12:53 am 00:53 Partly Cloudy 34 1.1 30 -1.1 85 85 NW 5 7 30.14 1021 10 16 N/A
1:53 am 01:53 Cloudy 36 2.2 31 -0.6 82 82 NW 3 6 30.15 1021 10 16 N/A
2:53 am 02:53 Mostly Cloudy 34 1.1 30 -1.1 85 85 WNW 7 11 30.16 1021 10 16 N/A
3:53 am 03:53 Cloudy 34 1.1 30 -1.1 85 85 NW 6 9 30.16 1021 10 16 N/A
4:53 am 04:53 Cloudy 34 1.1 29 -1.7 82 82 WNW 7 11 30.19 1022 10 16 N/A
5:53 am 05:53 Cloudy 32 undefined 29 -1.7 88 88 WNW 5 7 30.21 1023 10 16 N/A
6:53 am 06:53 Cloudy 33 0.6 29 -1.7 85 85 NW 5 7 30.24 1024 10 16 N/A
7:53 am 07:53 Mostly Cloudy 33 0.6 29 -1.7 85 85 NW 3 6 30.27 1025 10 16 N/A
8:53 am 08:53 Sunny 40 4.4 31 -0.6 70 70 W 10 17 30.29 1026 10 16 N/A
9:53 am 09:53 Mostly Cloudy 44 6.7 28 -2.2 53 53 W 16 26 30.28 1026 10 16 N/A
10:53 am 10:53 Mostly Cloudy 47 8.3 28 -2.2 48 48 WNW 16 26 30.29 1026 10 16 N/A
11:53 am 11:53 Sunny 49 9.4 27 -2.8 43 43 WNW 16 26 30.29 1026 10 16 N/A
12:53 pm 12:53 Mostly Sunny 50 10 25 -3.9 38 38 NW 16 26 30.27 1025 10 16 N/A
1:53 pm 13:53 Mostly Sunny 51 10.6 23 -5 33 33 NW 18 30 30.25 1024 10 16 N/A
2:53 pm 14:53 Sunny 54 12.2 21 -6.1 28 28 NW 18 30 30.24 1024 10 16 N/A
3:53 pm 15:53 Sunny 53 11.7 20 -6.7 27 27 NW 18 30 30.25 1025 10 16 N/A
4:53 pm 16:53 Sunny 51 10.6 20 -6.7 29 29 NW 14 22 30.26 1025 10 16 N/A
5:53 pm 17:53 Sunny 47 8.3 22 -5.6 37 37 NNW 9 15 30.27 1025 10 16 N/A
6:53 pm 18:53 Clear 40 4.4 24 -4.4 53 53 N 6 9 30.29 1026 10 16 N/A
7:53 pm 19:53 Clear 37 2.8 24 -4.4 59 59 N N/A 30.30 1026 10 16 N/A
8:53 pm 20:53 Clear 37 2.8 23 -5 57 57 N N/A 30.29 1026 10 16 N/A
9:53 pm 21:53 Clear 33 0.6 24 -4.4 70 70 SE 3 6 30.29 1026 10 16 N/A
10:53 pm 22:53 Clear 33 0.6 23 -5 66 66 ENE 3 6 30.27 1025 10 16 N/A
11:53 pm 23:53 Clear 32 undefined 23 -5 69 69 N N/A 30.27 1025 10 16 N/A

Powered by AerisWeather